AAL404 SVMI-TTPP

Flight info

Callsign AAL404
Flight time 0h 50m
Altitude 29000
Route SOSKA2 CBC UP671 MEGIR DCT SHARK
Aircraft MD83/M-SDFGIRWY/S

Departure

Time 2026-04-29 03:18
Airport Maiquetía Simón Bolívar International Airport (SVMI)

Arrival

Time 2026-04-29 04:08
Airport Piarco International Airport (TTPP)
Time Latitude Longitude Altitude Speed Heading
2026-04-29 03:04 10.59816 -67.00969 237 ft 0 kts 178°
2026-04-29 03:06 10.59823 -67.00969 237 ft 4 kts 178°
2026-04-29 03:07 10.59850 -67.00970 237 ft 4 kts 177°
2026-04-29 03:07 10.59876 -67.00973 237 ft 4 kts 178°
2026-04-29 03:07 10.59894 -67.00967 237 ft 4 kts 218°
2026-04-29 03:07 10.59906 -67.00949 237 ft 4 kts 264°
2026-04-29 03:08 10.59906 -67.00926 236 ft 1 kts 268°
2026-04-29 03:08 10.59907 -67.00921 236 ft 0 kts 268°
2026-04-29 03:10 10.59906 -67.00925 236 ft 3 kts 268°
2026-04-29 03:10 10.59905 -67.00946 237 ft 3 kts 265°
2026-04-29 03:10 10.59904 -67.00962 237 ft 2 kts 268°
2026-04-29 03:11 10.59903 -67.01007 238 ft 10 kts 270°
2026-04-29 03:11 10.59901 -67.01080 239 ft 10 kts 268°
2026-04-29 03:11 10.59898 -67.01145 240 ft 9 kts 266°
2026-04-29 03:11 10.59897 -67.01203 241 ft 8 kts 281°
2026-04-29 03:12 10.59922 -67.01227 242 ft 4 kts 344°
2026-04-29 03:12 10.59974 -67.01237 242 ft 10 kts 351°
2026-04-29 03:12 10.60053 -67.01243 242 ft 12 kts 358°
2026-04-29 03:12 10.60136 -67.01245 241 ft 12 kts 358°
2026-04-29 03:13 10.60233 -67.01249 239 ft 14 kts 356°
2026-04-29 03:13 10.60274 -67.01250 239 ft 0 kts 360°
2026-04-29 03:15 10.60275 -67.01250 239 ft 2 kts 360°
2026-04-29 03:15 10.60318 -67.01252 240 ft 6 kts 355°
2026-04-29 03:15 10.60351 -67.01252 241 ft 3 kts
2026-04-29 03:16 10.60369 -67.01243 242 ft 4 kts 38°
2026-04-29 03:16 10.60385 -67.01196 241 ft 10 kts 83°
2026-04-29 03:16 10.60386 -67.01188 241 ft 0 kts 82°
2026-04-29 03:17 10.60388 -67.01154 240 ft 22 kts 89°
2026-04-29 03:17 10.60397 -67.00762 233 ft 91 kts 88°
2026-04-29 03:17 10.60424 -66.99902 218 ft 150 kts 89°
2026-04-29 03:17 10.60470 -66.98715 430 ft 178 kts 85°
2026-04-29 03:18 10.60636 -66.97585 1389 ft 152 kts 78°
2026-04-29 03:18 10.60858 -66.96438 1457 ft 187 kts 79°
2026-04-29 03:18 10.61097 -66.95050 1615 ft 201 kts 81°
2026-04-29 03:18 10.61329 -66.93590 1827 ft 226 kts 81°
2026-04-29 03:19 10.61587 -66.91928 2151 ft 248 kts 81°
2026-04-29 03:19 10.61862 -66.90162 2764 ft 254 kts 80°
2026-04-29 03:19 10.62143 -66.88385 3551 ft 255 kts 80°
2026-04-29 03:19 10.62434 -66.86601 4282 ft 260 kts 80°
2026-04-29 03:20 10.62749 -66.84780 5003 ft 263 kts 79°
2026-04-29 03:20 10.63081 -66.82933 5691 ft 268 kts 80°
2026-04-29 03:20 10.63424 -66.81050 6348 ft 273 kts 80°
2026-04-29 03:20 10.63766 -66.79147 7042 ft 275 kts 81°
2026-04-29 03:21 10.64107 -66.77216 7721 ft 278 kts 81°
2026-04-29 03:21 10.64444 -66.75266 8305 ft 283 kts 81°
2026-04-29 03:21 10.64784 -66.73287 8901 ft 285 kts 81°
2026-04-29 03:21 10.65127 -66.71294 9487 ft 288 kts 81°
2026-04-29 03:22 10.65469 -66.69304 10048 ft 290 kts 81°
2026-04-29 03:22 10.65820 -66.67267 10551 ft 296 kts 81°
2026-04-29 03:22 10.66183 -66.65154 10793 ft 311 kts 81°
2026-04-29 03:22 10.66568 -66.62926 10902 ft 328 kts 80°
2026-04-29 03:23 10.66975 -66.60577 10956 ft 346 kts 80°
2026-04-29 03:23 10.67406 -66.58105 10976 ft 361 kts 80°
2026-04-29 03:23 10.67847 -66.55586 10987 ft 362 kts 80°
2026-04-29 03:23 10.68288 -66.53060 10991 ft 363 kts 80°
2026-04-29 03:24 10.68701 -66.50562 10993 ft 362 kts 85°
2026-04-29 03:24 10.68537 -66.48008 11047 ft 367 kts 102°
2026-04-29 03:24 10.67892 -66.45486 11551 ft 369 kts 105°
2026-04-29 03:24 10.67171 -66.42987 12222 ft 368 kts 105°
2026-04-29 03:25 10.66461 -66.40481 12761 ft 369 kts 105°
2026-04-29 03:25 10.65779 -66.37950 13212 ft 374 kts 104°
2026-04-29 03:25 10.65112 -66.35379 13688 ft 378 kts 104°
2026-04-29 03:25 10.64452 -66.32789 14265 ft 379 kts 104°
2026-04-29 03:26 10.63794 -66.30185 14735 ft 382 kts 104°
2026-04-29 03:26 10.63129 -66.27553 15169 ft 387 kts 104°
2026-04-29 03:26 10.62454 -66.24895 15693 ft 389 kts 104°
2026-04-29 03:26 10.61773 -66.22221 16173 ft 393 kts 104°
2026-04-29 03:27 10.61083 -66.19522 16678 ft 396 kts 104°
2026-04-29 03:27 10.60386 -66.16795 17205 ft 399 kts 104°
2026-04-29 03:27 10.59684 -66.14057 17673 ft 402 kts 104°
2026-04-29 03:27 10.58973 -66.11296 18128 ft 406 kts 104°
2026-04-29 03:28 10.58266 -66.08545 18613 ft 409 kts 104°
2026-04-29 03:28 10.57551 -66.05738 19112 ft 411 kts 103°
2026-04-29 03:28 10.57219 -66.02838 19538 ft 416 kts 92°
2026-04-29 03:28 10.57225 -65.99886 19977 ft 419 kts 89°
2026-04-29 03:29 10.57286 -65.96910 20409 ft 422 kts 90°
2026-04-29 03:29 10.57313 -65.93912 20825 ft 425 kts 91°
2026-04-29 03:29 10.57299 -65.90894 21185 ft 429 kts 91°
2026-04-29 03:29 10.57261 -65.87849 21564 ft 432 kts 91°
2026-04-29 03:30 10.57217 -65.84790 21962 ft 435 kts 92°
2026-04-29 03:30 10.57178 -65.81712 22346 ft 437 kts 92°
2026-04-29 03:30 10.57145 -65.78601 22690 ft 441 kts 91°
2026-04-29 03:30 10.57119 -65.75477 23015 ft 444 kts 91°
2026-04-29 03:31 10.57077 -65.69168 23748 ft 448 kts 92°
2026-04-29 03:31 10.57057 -65.65988 24039 ft 452 kts 91°
2026-04-29 03:31 10.57043 -65.63870 24253 ft 454 kts 92°
2026-04-29 03:32 10.57008 -65.59569 24690 ft 456 kts 92°
2026-04-29 03:32 10.56979 -65.56331 25017 ft 458 kts 92°
2026-04-29 03:32 10.56947 -65.53086 25330 ft 461 kts 92°
2026-04-29 03:32 10.56914 -65.49817 25614 ft 463 kts 92°
2026-04-29 03:33 10.56880 -65.46539 25913 ft 465 kts 92°
2026-04-29 03:33 10.56857 -65.44353 26108 ft 467 kts 92°
2026-04-29 03:33 10.56810 -65.39930 26494 ft 470 kts 92°
2026-04-29 03:33 10.56776 -65.36644 26799 ft 471 kts 92°
2026-04-29 03:34 10.56741 -65.33320 27245 ft 469 kts 92°
2026-04-29 03:34 10.56706 -65.30012 27697 ft 467 kts 92°
2026-04-29 03:34 10.56669 -65.26717 28110 ft 466 kts 92°
2026-04-29 03:34 10.56631 -65.23428 28487 ft 463 kts 92°
2026-04-29 03:35 10.56593 -65.20167 28755 ft 460 kts 92°
2026-04-29 03:35 10.56553 -65.16911 28879 ft 460 kts 92°
2026-04-29 03:35 10.56486 -65.11589 28950 ft 458 kts 92°
2026-04-29 03:36 10.56405 -65.05118 28977 ft 457 kts 92°
2026-04-29 03:36 10.56328 -64.98674 28977 ft 455 kts 92°
2026-04-29 03:37 10.56247 -64.92219 28988 ft 458 kts 92°
2026-04-29 03:37 10.56169 -64.85745 28977 ft 457 kts 92°
2026-04-29 03:38 10.56091 -64.79300 28977 ft 455 kts 92°
2026-04-29 03:38 10.56016 -64.72914 28976 ft 454 kts 92°
2026-04-29 03:39 10.55940 -64.66499 28977 ft 454 kts 92°
2026-04-29 03:39 10.55865 -64.60068 28977 ft 455 kts 92°
2026-04-29 03:40 10.55789 -64.53638 28987 ft 455 kts 92°
2026-04-29 03:40 10.55716 -64.47207 28986 ft 455 kts 92°
2026-04-29 03:41 10.55640 -64.40774 28984 ft 454 kts 92°
2026-04-29 03:41 10.55566 -64.34363 28980 ft 452 kts 92°
2026-04-29 03:42 10.55489 -64.28019 28986 ft 451 kts 92°
2026-04-29 03:42 10.55409 -64.21630 28978 ft 453 kts 92°
2026-04-29 03:43 10.55330 -64.15219 28977 ft 453 kts 92°
2026-04-29 03:43 10.55250 -64.08815 28977 ft 453 kts 92°
2026-04-29 03:44 10.55193 -64.02412 28977 ft 453 kts 92°
2026-04-29 03:44 10.55171 -63.96007 28983 ft 452 kts 92°
2026-04-29 03:45 10.55148 -63.89664 28978 ft 450 kts 92°
2026-04-29 03:45 10.55126 -63.83300 28976 ft 451 kts 92°
2026-04-29 03:46 10.55104 -63.76923 28979 ft 452 kts 92°
2026-04-29 03:46 10.55079 -63.70520 28976 ft 453 kts 92°
2026-04-29 03:47 10.55057 -63.64113 28982 ft 453 kts 92°
2026-04-29 03:47 10.55037 -63.57704 28978 ft 452 kts 92°
2026-04-29 03:48 10.55014 -63.51316 28986 ft 452 kts 92°
2026-04-29 03:48 10.54996 -63.44941 28985 ft 451 kts 92°
2026-04-29 03:49 10.54978 -63.38552 28988 ft 452 kts 92°
2026-04-29 03:49 10.54962 -63.32154 28986 ft 453 kts 92°
2026-04-29 03:50 10.54946 -63.25797 28989 ft 454 kts 92°
2026-04-29 03:50 10.54933 -63.19384 28989 ft 454 kts 92°
2026-04-29 03:51 10.54919 -63.12967 28990 ft 454 kts 92°
2026-04-29 03:51 10.54907 -63.06554 28990 ft 454 kts 92°
2026-04-29 03:52 10.54891 -63.00139 28990 ft 454 kts 92°
2026-04-29 03:52 10.54880 -62.93713 28989 ft 454 kts 92°
2026-04-29 03:53 10.54869 -62.87289 28989 ft 453 kts 92°
2026-04-29 03:53 10.54858 -62.80899 28993 ft 452 kts 92°
2026-04-29 03:54 10.54853 -62.77689 28778 ft 456 kts 92°
2026-04-29 03:54 10.54847 -62.74454 28308 ft 454 kts 92°
2026-04-29 03:54 10.54842 -62.71274 27829 ft 447 kts 92°
2026-04-29 03:54 10.54838 -62.68135 27249 ft 440 kts 92°
2026-04-29 03:55 10.54836 -62.65044 26625 ft 436 kts 92°
2026-04-29 03:55 10.54834 -62.61979 25960 ft 432 kts 92°
2026-04-29 03:55 10.54832 -62.58977 25278 ft 429 kts 92°
2026-04-29 03:55 10.54830 -62.55954 24572 ft 426 kts 91°
2026-04-29 03:56 10.54828 -62.52947 23850 ft 424 kts 91°
2026-04-29 03:56 10.54826 -62.49961 23151 ft 421 kts 91°
2026-04-29 03:56 10.54823 -62.46999 22449 ft 418 kts 91°
2026-04-29 03:56 10.54819 -62.44056 21757 ft 415 kts 91°
2026-04-29 03:57 10.54813 -62.41137 21081 ft 411 kts 91°
2026-04-29 03:57 10.54806 -62.38242 20414 ft 408 kts 91°
2026-04-29 03:57 10.54799 -62.35375 19765 ft 404 kts 91°
2026-04-29 03:57 10.54790 -62.32529 19112 ft 400 kts 90°
2026-04-29 03:58 10.54780 -62.29714 18468 ft 397 kts 90°
2026-04-29 03:58 10.54768 -62.26918 17820 ft 393 kts 90°
2026-04-29 03:58 10.54754 -62.24156 17191 ft 389 kts 90°
2026-04-29 03:58 10.54738 -62.21428 16564 ft 384 kts 90°
2026-04-29 03:59 10.54721 -62.18725 15938 ft 380 kts 90°
2026-04-29 03:59 10.54704 -62.16053 15316 ft 376 kts 90°
2026-04-29 03:59 10.54686 -62.13409 14695 ft 372 kts 90°
2026-04-29 03:59 10.54668 -62.10800 14080 ft 367 kts 90°
2026-04-29 04:00 10.54648 -62.08219 13492 ft 363 kts 90°
2026-04-29 04:00 10.54627 -62.05677 12919 ft 357 kts 90°
2026-04-29 04:00 10.54603 -62.03178 12341 ft 350 kts 90°
2026-04-29 04:00 10.54579 -62.00722 11782 ft 344 kts 89°
2026-04-29 04:01 10.54553 -61.98313 11228 ft 338 kts 90°
2026-04-29 04:01 10.54529 -61.95950 10697 ft 332 kts 90°
2026-04-29 04:01 10.54509 -61.93653 10451 ft 317 kts 90°
2026-04-29 04:01 10.54487 -61.91465 10293 ft 302 kts 90°
2026-04-29 04:02 10.54464 -61.89409 10135 ft 288 kts 90°
2026-04-29 04:02 10.54443 -61.87418 9989 ft 275 kts 90°
2026-04-29 04:02 10.54420 -61.85499 9666 ft 270 kts 90°
2026-04-29 04:02 10.54400 -61.83611 9384 ft 265 kts 91°
2026-04-29 04:03 10.54380 -61.81733 9022 ft 267 kts 91°
2026-04-29 04:03 10.54361 -61.79843 8568 ft 269 kts 91°
2026-04-29 04:03 10.54344 -61.77933 8066 ft 271 kts 91°
2026-04-29 04:03 10.54327 -61.76009 7583 ft 272 kts 91°
2026-04-29 04:04 10.54308 -61.74098 7210 ft 268 kts 91°
2026-04-29 04:04 10.54291 -61.72222 6938 ft 262 kts 91°
2026-04-29 04:04 10.54273 -61.70399 6700 ft 254 kts 91°
2026-04-29 04:04 10.54250 -61.68620 6476 ft 250 kts 91°
2026-04-29 04:05 10.54227 -61.66874 6257 ft 250 kts 91°
2026-04-29 04:05 10.54204 -61.65101 6056 ft 251 kts 91°
2026-04-29 04:05 10.54181 -61.63324 5892 ft 251 kts 91°
2026-04-29 04:05 10.54158 -61.61548 5783 ft 250 kts 91°
2026-04-29 04:06 10.54138 -61.59770 5664 ft 254 kts 91°
2026-04-29 04:06 10.54117 -61.57924 4957 ft 269 kts 91°
2026-04-29 04:06 10.54094 -61.55997 4371 ft 274 kts 90°
2026-04-29 04:06 10.54072 -61.54080 4024 ft 268 kts 90°
2026-04-29 04:07 10.54049 -61.52204 3730 ft 262 kts 90°
2026-04-29 04:07 10.54021 -61.50374 3475 ft 255 kts 90°
2026-04-29 04:07 10.54006 -61.48615 3319 ft 245 kts 85°
2026-04-29 04:07 10.54746 -61.47080 2571 ft 259 kts 36°
2026-04-29 04:08 10.56492 -61.46660 2073 ft 268 kts 358°
2026-04-29 04:08 10.58329 -61.46908 1926 ft 255 kts
2026-04-29 04:08 10.59982 -61.46372 1246 ft 267 kts 27°
2026-04-29 04:08 10.60627 -61.46051 65 ft 0 kts 193°
2026-04-29 04:09 10.60628 -61.46052 55 ft 0 kts 182°